Weather History for Peru, IN

Change the Weather History Date:

Saturday, April 19, 2014

  Actual Average Record
Temperature  
Mean Temperature 50 °F -  
Max Temperature 64 °F 61 °F 82 °F (2002)
Min Temperature 35 °F 42 °F 35 °F (1999)
Degree Days  
Heating Degree Days 16    
Moisture  
Dew Point 36 °F    
Average Humidity 61    
Maximum Humidity 93    
Minimum Humidity 38    
Precipitation  
Precipitation 0.00 in - - ()
Sea Level Pressure  
Sea Level Pressure 30.33 in    
Wind  
Wind Speed 11 mph (ENE)    
Max Wind Speed 17 mph    
Max Gust Speed -    
Visibility 10 miles    
Events      
Averages and records for this station are not official NWS values.
T = Trace of Precipitation, MM = Missing Value Source: NWS Daily Summary

Daily Weather History Graph

Daily Weather History Graph

Search for Another Location

Airport:

Trip Planner

Search our weather history database for the weather conditions in past years. The results will help you decide how hot, cold, wet, or windy it might be!

Date:

Astronomy

Apr. 19, 2014 Rise Set
Actual Time 6:59 AM EDT 8:28 PM EDT
Civil Twilight 6:31 AM EDT 8:56 PM EDT
Nautical Twilight 5:56 AM EDT 9:31 PM EDT
Astronomical Twilight 5:20 AM EDT 10:08 PM EDT
Moon 12:12 AM EDT (4/19) 10:17 AM EDT (4/19)
Length of Visible Light 14h 25m
Length of Day
13h 28m
Waning Gibbous, 79% of the Moon is Illuminated
Apr 19
Waning Gibbous
Apr 22
Last Quarter
Apr 29
New
May 6
First Quarter
May 14
Full

Hourly Weather History & Observations

Time (EDT) Temp. Windchill Dew Point Humidity Pressure Visibility Wind Dir Wind Speed Gust Speed Precip Events Conditions
12:58 AM 43.3 °F 38.1 °F 32.0 °F 64% 30.33 in 10.0 mi North 9.2 mph - N/A   Clear
1:58 AM 42.1 °F 36.6 °F 31.1 °F 65% 30.32 in 10.0 mi North 9.2 mph - N/A   Clear
2:58 AM 39.6 °F 34.0 °F 31.5 °F 73% 30.32 in 10.0 mi NNE 8.1 mph - N/A   Clear
3:58 AM 36.3 °F 31.6 °F 30.9 °F 81% 30.32 in 10.0 mi NNE 5.8 mph - N/A   Clear
4:58 AM 35.4 °F 29.0 °F 31.1 °F 84% 30.32 in 10.0 mi NNE 8.1 mph - N/A   Clear
5:58 AM 35.8 °F 28.3 °F 32.4 °F 87% 30.33 in 10.0 mi NE 10.4 mph - N/A   Clear
6:58 AM 36.9 °F 30.1 °F 35.1 °F 93% 30.34 in 10.0 mi NE 9.2 mph - N/A   Clear
7:58 AM 40.8 °F 33.3 °F 39.0 °F 93% 30.36 in 10.0 mi East 13.8 mph - N/A   Clear
8:58 AM 43.3 °F 35.5 °F 40.1 °F 88% 30.39 in 10.0 mi East 17.3 mph - N/A   Clear
9:58 AM 46.9 °F - 40.1 °F 77% 30.38 in 10.0 mi East 15.0 mph - N/A   Clear
10:30 AM 50.0 °F - 41.0 °F 71% 30.37 in 10.0 mi East 15.0 mph - N/A   Clear
10:58 AM 51.1 °F - 40.6 °F 67% 30.39 in 10.0 mi East 16.1 mph - N/A   Clear
11:58 AM 54.5 °F - 41.2 °F 61% 30.38 in 10.0 mi East 13.8 mph - N/A   Clear
12:58 PM 57.7 °F - 41.4 °F 54% 30.37 in 10.0 mi East 15.0 mph - N/A   Clear
1:58 PM 60.8 °F - 40.6 °F 47% 30.35 in 10.0 mi East 12.7 mph - N/A   Clear
2:58 PM 62.2 °F - 39.7 °F 44% 30.35 in 10.0 mi East 12.7 mph - N/A   Clear
3:58 PM 64.2 °F - 39.2 °F 40% 30.32 in 10.0 mi East 15.0 mph - N/A   Clear
4:58 PM 64.8 °F - 39.0 °F 39% 30.30 in 10.0 mi East 11.5 mph - N/A   Clear
5:58 PM 63.9 °F - 37.4 °F 38% 30.28 in 10.0 mi East 10.4 mph - N/A   Clear
6:58 PM 62.6 °F - 37.0 °F 39% 30.29 in 10.0 mi East 12.7 mph - N/A   Clear
7:58 PM 59.7 °F - 36.0 °F 41% 30.28 in 10.0 mi East 10.4 mph - N/A   Clear
8:58 PM 55.8 °F - 34.3 °F 44% 30.30 in 10.0 mi East 9.2 mph - N/A   Clear
9:58 PM 52.9 °F - 32.9 °F 47% 30.30 in 10.0 mi East 9.2 mph - N/A   Clear
10:58 PM 51.4 °F - 31.1 °F 46% 30.30 in 10.0 mi East 9.2 mph - N/A   Clear
11:58 PM 47.7 °F - 29.3 °F 49% 30.30 in 10.0 mi ENE 9.2 mph - N/A   Clear